Starlink 11653

operational
NORAD ID: 63267 Int'l Des: 2025-053 Owner: SPXS Country: US Constellation: starlink
LEOCIRCULAR

关于 Starlink 11653

正在加载描述...

实时位置

正在加载3D地球...

即将过境

高度历史

Altitude vs Time

uPlot chart will show altitude changes over time

两行轨道根数

1 63267U 25053C 25307.58140056 .00232795 00000-0 17658-2 0 9992
2 63267 42.9995 152.5721 0001896 250.6759 109.3904 15.70861522 37839
Epoch: Nov 3, 2025 • Age: 16 hours

当前状态

高度 356.9 km
速度 7.70 km/s
星下点 30.71°N, 159.02°E
发射日期 Mar 15, 2025
运行时间 0.6 years
类型 internet

技术详情

分类 Payload
质量 960.00 kg
干质量 910.00 kg
总质量 960.00 kg
长度 0.30 m
直径 4.10 m
跨度 29.00 m
形状 Box + pan
制造商 SPXS
平台类型 Starlink V2MD
阶段状态 In Orbit
所有者/国家 SPXS/US

大型星座

Loading constellations...